Time,TemperatureF,DewpointF,PressureIn,WindDirection,WindDirectionDegrees,WindSpeedMPH,WindSpeedGustMPH,Humidity,HourlyPrecipIn,Conditions,Clouds,dailyrainin,SolarRadiationWatts/m^2,SoftwareType,DateUTC
2013-06-21 00:13:00,65.8,57.0,30.31,WSW,245,3.0,7.0,72,0.00,,,0.00,0,weatherlink.com 1.10,2013-06-21 04:13:00,
2013-06-21 00:28:00,65.4,56.0,30.31,West,271,3.0,8.0,72,0.00,,,0.00,0,weatherlink.com 1.10,2013-06-21 04:28:00,
2013-06-21 00:43:00,65.0,56.0,30.31,SSW,198,2.0,8.0,72,0.00,,,0.00,0,weatherlink.com 1.10,2013-06-21 04:43:00,
2013-06-21 00:58:00,64.7,56.0,30.31,SW,217,1.0,6.0,73,0.00,,,0.00,0,weatherlink.com 1.10,2013-06-21 04:58:00,
2013-06-21 01:13:00,64.3,55.0,30.30,SSW,198,4.0,8.0,73,0.00,,,0.00,0,weatherlink.com 1.10,2013-06-21 05:13:00,
2013-06-21 01:28:00,63.8,55.0,30.30,SSW,204,1.0,7.0,73,0.00,,,0.00,0,weatherlink.com 1.10,2013-06-21 05:28:00,
2013-06-21 01:43:00,63.4,55.0,30.30,WSW,246,3.0,5.0,74,0.00,,,0.00,0,weatherlink.com 1.10,2013-06-21 05:43:00,
2013-06-21 01:58:00,63.2,55.0,30.30,SW,232,0.0,7.0,75,0.00,,,0.00,0,weatherlink.com 1.10,2013-06-21 05:58:00,
2013-06-21 02:13:00,63.1,55.0,30.30,SW,232,4.0,5.0,75,0.00,,,0.00,0,weatherlink.com 1.10,2013-06-21 06:13:00,
2013-06-21 02:28:00,62.9,55.0,30.30,WSW,255,0.0,6.0,76,0.00,,,0.00,0,weatherlink.com 1.10,2013-06-21 06:28:00,
2013-06-21 02:43:00,62.6,55.0,30.30,SW,223,4.0,6.0,77,0.00,,,0.00,0,weatherlink.com 1.10,2013-06-21 06:43:00,
2013-06-21 02:58:00,62.2,55.0,30.29,SSW,203,0.0,8.0,78,0.00,,,0.00,0,weatherlink.com 1.10,2013-06-21 06:58:00,
2013-06-21 03:13:00,62.0,55.0,30.29,SW,229,1.0,6.0,79,0.00,,,0.00,0,weatherlink.com 1.10,2013-06-21 07:13:00,
2013-06-21 03:28:00,61.9,55.0,30.29,WSW,244,1.0,9.0,79,0.00,,,0.00,0,weatherlink.com 1.10,2013-06-21 07:28:00,
2013-06-21 03:43:00,61.9,55.0,30.29,WSW,254,0.0,8.0,79,0.00,,,0.00,0,weatherlink.com 1.10,2013-06-21 07:43:00,
2013-06-21 03:58:00,61.6,55.0,30.29,West,278,0.0,9.0,79,0.00,,,0.00,0,weatherlink.com 1.10,2013-06-21 07:58:00,
2013-06-21 04:13:00,61.5,55.0,30.29,West,267,6.0,6.0,80,0.00,,,0.00,0,weatherlink.com 1.10,2013-06-21 08:13:00,
2013-06-21 04:28:00,61.3,55.0,30.29,South,183,3.0,6.0,80,0.00,,,0.00,0,weatherlink.com 1.10,2013-06-21 08:28:00,
2013-06-21 04:43:00,61.1,55.0,30.29,WSW,243,4.0,9.0,80,0.00,,,0.00,0,weatherlink.com 1.10,2013-06-21 08:43:00,
2013-06-21 04:58:00,61.0,54.0,30.30,WSW,250,1.0,10.0,79,0.00,,,0.00,0,weatherlink.com 1.10,2013-06-21 08:58:00,
2013-06-21 05:13:00,60.9,54.0,30.30,WSW,248,2.0,7.0,79,0.00,,,0.00,5,weatherlink.com 1.10,2013-06-21 09:13:00,
2013-06-21 05:28:00,60.9,54.0,30.30,SW,229,2.0,7.0,79,0.00,,,0.00,12,weatherlink.com 1.10,2013-06-21 09:28:00,
2013-06-21 05:43:00,61.1,55.0,30.30,West,271,5.0,7.0,79,0.00,,,0.00,28,weatherlink.com 1.10,2013-06-21 09:43:00,
2013-06-21 05:58:00,61.4,55.0,30.30,SW,221,4.0,7.0,78,0.00,,,0.00,54,weatherlink.com 1.10,2013-06-21 09:58:00,
2013-06-21 06:13:00,61.7,55.0,30.30,SW,234,2.0,6.0,78,0.00,,,0.00,93,weatherlink.com 1.10,2013-06-21 10:13:00,
2013-06-21 06:28:00,62.0,55.0,30.31,SSW,198,1.0,5.0,77,0.00,,,0.00,135,weatherlink.com 1.10,2013-06-21 10:28:00,
2013-06-21 06:44:00,62.6,55.0,30.31,WSW,252,3.0,7.0,76,0.00,,,0.00,185,weatherlink.com 1.10,2013-06-21 10:44:00,
2013-06-21 06:59:00,63.3,55.0,30.31,West,281,3.0,8.0,75,0.00,,,0.00,232,weatherlink.com 1.10,2013-06-21 10:59:00,
2013-06-21 07:14:00,63.8,56.0,30.30,SW,226,2.0,8.0,75,0.00,,,0.00,262,weatherlink.com 1.10,2013-06-21 11:14:00,
2013-06-21 07:29:00,64.6,56.0,30.30,WSW,240,3.0,7.0,74,0.00,,,0.00,329,weatherlink.com 1.10,2013-06-21 11:29:00,
2013-06-21 07:44:00,65.6,57.0,30.30,SSW,197,1.0,7.0,73,0.00,,,0.00,343,weatherlink.com 1.10,2013-06-21 11:44:00,
2013-06-21 07:59:00,66.2,57.0,30.30,West,261,2.0,6.0,72,0.00,,,0.00,374,weatherlink.com 1.10,2013-06-21 11:59:00,
2013-06-21 08:14:00,67.5,58.0,30.30,WSW,250,2.0,6.0,71,0.00,,,0.00,455,weatherlink.com 1.10,2013-06-21 12:14:00,
2013-06-21 08:29:00,68.2,58.0,30.30,WSW,247,4.0,7.0,70,0.00,,,0.00,492,weatherlink.com 1.10,2013-06-21 12:29:00,
2013-06-21 08:44:00,69.3,59.0,30.30,WSW,252,1.0,10.0,69,0.00,,,0.00,529,weatherlink.com 1.10,2013-06-21 12:44:00,
2013-06-21 08:59:00,70.1,59.0,30.29,WNW,284,4.0,9.0,69,0.00,,,0.00,584,weatherlink.com 1.10,2013-06-21 12:59:00,
2013-06-21 09:14:00,70.7,59.0,30.29,West,281,3.0,9.0,67,0.00,,,0.00,606,weatherlink.com 1.10,2013-06-21 13:14:00,
2013-06-21 09:29:00,71.9,59.0,30.29,West,265,2.0,8.0,65,0.00,,,0.00,654,weatherlink.com 1.10,2013-06-21 13:29:00,
2013-06-21 09:44:00,72.8,60.0,30.29,WSW,254,3.0,8.0,65,0.00,,,0.00,693,weatherlink.com 1.10,2013-06-21 13:44:00,
2013-06-21 09:59:00,74.5,61.0,30.29,South,184,3.0,6.0,63,0.00,,,0.00,712,weatherlink.com 1.10,2013-06-21 13:59:00,
2013-06-21 10:14:00,75.2,61.0,30.30,WSW,253,2.0,6.0,62,0.00,,,0.00,751,weatherlink.com 1.10,2013-06-21 14:14:00,
2013-06-21 10:30:00,76.1,62.0,30.30,NW,315,5.0,7.0,61,0.00,,,0.00,772,weatherlink.com 1.10,2013-06-21 14:30:00,
2013-06-21 10:45:00,75.8,61.0,30.30,NNW,334,5.0,10.0,60,0.00,,,0.00,807,weatherlink.com 1.10,2013-06-21 14:45:00,
2013-06-21 11:00:00,76.7,61.0,30.30,NW,317,4.0,10.0,58,0.00,,,0.00,826,weatherlink.com 1.10,2013-06-21 15:00:00,
2013-06-21 11:15:00,77.5,61.0,30.30,WSW,254,3.0,8.0,58,0.00,,,0.00,905,weatherlink.com 1.10,2013-06-21 15:15:00,
2013-06-21 11:30:00,78.4,61.0,30.30,WNW,294,5.0,11.0,56,0.00,,,0.00,870,weatherlink.com 1.10,2013-06-21 15:30:00,
2013-06-21 11:45:00,78.3,61.0,30.29,West,275,2.0,9.0,55,0.00,,,0.00,875,weatherlink.com 1.10,2013-06-21 15:45:00,
2013-06-21 12:00:00,79.6,61.0,30.29,NW,326,4.0,8.0,54,0.00,,,0.00,868,weatherlink.com 1.10,2013-06-21 16:00:00,
2013-06-21 12:15:00,79.5,61.0,30.29,WNW,288,2.0,9.0,54,0.00,,,0.00,921,weatherlink.com 1.10,2013-06-21 16:15:00,
2013-06-21 12:30:00,81.4,63.0,30.28,SSW,198,3.0,5.0,53,0.00,,,0.00,947,weatherlink.com 1.10,2013-06-21 16:30:00,
2013-06-21 12:45:00,81.2,63.0,30.28,West,276,2.0,7.0,54,0.00,,,0.00,501,weatherlink.com 1.10,2013-06-21 16:45:00,
2013-06-21 13:00:00,80.4,63.0,30.28,West,263,1.0,9.0,55,0.00,,,0.00,336,weatherlink.com 1.10,2013-06-21 17:00:00,
2013-06-21 13:30:00,82.7,62.0,30.27,WNW,298,4.0,7.0,50,0.00,,,0.00,281,weatherlink.com 1.10,2013-06-21 17:30:00,
2013-06-21 14:00:00,82.5,61.0,30.27,West,273,2.0,11.0,49,0.00,,,0.00,241,weatherlink.com 1.10,2013-06-21 18:00:00,
2013-06-21 14:15:00,83.2,60.0,30.26,West,280,5.0,12.0,45,0.00,,,0.00,1007,weatherlink.com 1.10,2013-06-21 18:15:00,
2013-06-21 14:30:00,83.2,60.0,30.26,WNW,290,5.0,13.0,46,0.00,,,0.00,981,weatherlink.com 1.10,2013-06-21 18:30:00,
2013-06-21 14:45:00,84.8,60.0,30.25,WSW,239,3.0,8.0,43,0.00,,,0.00,279,weatherlink.com 1.10,2013-06-21 18:45:00,
2013-06-21 15:00:00,83.1,60.0,30.25,WNW,291,4.0,13.0,45,0.00,,,0.00,981,weatherlink.com 1.10,2013-06-21 19:00:00,
2013-06-21 15:15:00,82.9,58.0,30.25,NW,311,7.0,12.0,43,0.00,,,0.00,262,weatherlink.com 1.10,2013-06-21 19:15:00,
2013-06-21 15:30:00,83.2,59.0,30.25,WSW,247,5.0,11.0,44,0.00,,,0.00,258,weatherlink.com 1.10,2013-06-21 19:30:00,
2013-06-21 16:00:00,84.1,59.0,30.25,West,279,5.0,12.0,42,0.00,,,0.00,733,weatherlink.com 1.10,2013-06-21 20:00:00,
2013-06-21 16:15:00,84.5,58.0,30.26,NNW,346,5.0,10.0,40,0.00,,,0.00,654,weatherlink.com 1.10,2013-06-21 20:15:00,
2013-06-21 16:30:00,84.5,58.0,30.25,West,281,4.0,11.0,41,0.00,,,0.00,605,weatherlink.com 1.10,2013-06-21 20:30:00,
2013-06-21 17:00:00,84.7,58.0,30.24,NW,320,6.0,10.0,40,0.00,,,0.00,524,weatherlink.com 1.10,2013-06-21 21:00:00,
2013-06-21 17:15:00,84.9,58.0,30.24,NW,323,4.0,8.0,40,0.00,,,0.00,482,weatherlink.com 1.10,2013-06-21 21:15:00,
2013-06-21 17:30:00,85.5,56.0,30.24,NNW,333,7.0,10.0,37,0.00,,,0.00,422,weatherlink.com 1.10,2013-06-21 21:30:00,
2013-06-21 18:00:00,84.8,56.0,30.24,WNW,293,5.0,10.0,37,0.00,,,0.00,336,weatherlink.com 1.10,2013-06-21 22:00:00,
2013-06-21 18:15:00,84.6,56.0,30.24,NW,321,3.0,9.0,37,0.00,,,0.00,287,weatherlink.com 1.10,2013-06-21 22:15:00,
2013-06-21 18:31:00,85.0,54.0,30.25,WNW,300,1.0,6.0,35,0.00,,,0.00,246,weatherlink.com 1.10,2013-06-21 22:31:00,
2013-06-21 18:46:00,84.6,54.0,30.25,West,281,3.0,6.0,35,0.00,,,0.00,190,weatherlink.com 1.10,2013-06-21 22:46:00,
2013-06-21 19:01:00,84.2,54.0,30.25,West,263,2.0,6.0,36,0.00,,,0.00,155,weatherlink.com 1.10,2013-06-21 23:01:00,
2013-06-21 19:16:00,84.1,55.0,30.25,West,272,3.0,6.0,37,0.00,,,0.00,107,weatherlink.com 1.10,2013-06-21 23:16:00,
2013-06-21 19:31:00,83.6,57.0,30.25,WNW,303,0.0,5.0,40,0.00,,,0.00,65,weatherlink.com 1.10,2013-06-21 23:31:00,
2013-06-21 19:46:00,83.2,58.0,30.25,West,273,1.0,6.0,43,0.00,,,0.00,39,weatherlink.com 1.10,2013-06-21 23:46:00,
2013-06-21 20:01:00,82.4,59.0,30.25,NW,326,0.0,4.0,45,0.00,,,0.00,21,weatherlink.com 1.10,2013-06-22 00:01:00,
2013-06-21 20:16:00,81.3,61.0,30.26,NW,325,0.0,2.0,50,0.00,,,0.00,9,weatherlink.com 1.10,2013-06-22 00:16:00,
2013-06-21 20:31:00,79.7,62.0,30.26,East,96,1.0,3.0,55,0.00,,,0.00,0,weatherlink.com 1.10,2013-06-22 00:31:00,
2013-06-21 20:46:00,78.7,63.0,30.26,SSW,199,1.0,5.0,58,0.00,,,0.00,0,weatherlink.com 1.10,2013-06-22 00:46:00,
2013-06-21 21:01:00,78.3,65.0,30.26,WSW,254,0.0,5.0,63,0.00,,,0.00,0,weatherlink.com 1.10,2013-06-22 01:01:00,
2013-06-21 21:16:00,77.7,65.0,30.26,WSW,239,0.0,3.0,65,0.00,,,0.00,0,weatherlink.com 1.10,2013-06-22 01:16:00,
2013-06-21 21:31:00,77.0,65.0,30.27,SW,228,2.0,4.0,67,0.00,,,0.00,0,weatherlink.com 1.10,2013-06-22 01:31:00,
2013-06-21 21:46:00,76.4,65.0,30.27,SW,233,2.0,7.0,67,0.00,,,0.00,0,weatherlink.com 1.10,2013-06-22 01:46:00,
2013-06-21 22:01:00,75.8,64.0,30.27,WNW,299,1.0,9.0,67,0.00,,,0.00,0,weatherlink.com 1.10,2013-06-22 02:01:00,
2013-06-21 22:16:00,75.3,64.0,30.27,SW,231,3.0,7.0,68,0.00,,,0.00,0,weatherlink.com 1.10,2013-06-22 02:16:00,
2013-06-21 22:31:00,74.6,63.0,30.27,West,277,3.0,8.0,68,0.00,,,0.00,0,weatherlink.com 1.10,2013-06-22 02:31:00,
2013-06-21 22:46:00,74.1,63.0,30.27,West,262,2.0,8.0,69,0.00,,,0.00,0,weatherlink.com 1.10,2013-06-22 02:46:00,
2013-06-21 23:01:00,73.4,63.0,30.27,SSW,209,1.0,5.0,69,0.00,,,0.00,0,weatherlink.com 1.10,2013-06-22 03:01:00,
2013-06-21 23:16:00,73.0,62.0,30.27,SSW,210,4.0,7.0,69,0.00,,,0.00,0,weatherlink.com 1.10,2013-06-22 03:16:00,
2013-06-21 23:31:00,72.5,62.0,30.27,SW,214,2.0,8.0,69,0.00,,,0.00,0,weatherlink.com 1.10,2013-06-22 03:31:00,
2013-06-21 23:46:00,71.9,62.0,30.27,SW,217,1.0,5.0,70,0.00,,,0.00,0,weatherlink.com 1.10,2013-06-22 03:46:00,